Weather History for Arlington, WA

Change the Weather History Date:

Saturday, November 15, 2014

  Actual Average Record
Temperature  
Mean Temperature 30 °F -  
Max Temperature 44 °F 60 °F 60 °F (1976)
Min Temperature 17 °F 40 °F 17 °F (2014)
Degree Days  
Heating Degree Days 34    
Moisture  
Dew Point 16 °F    
Average Humidity 65    
Maximum Humidity 86    
Minimum Humidity 31    
Precipitation  
Precipitation 0.00 in - - ()
Sea Level Pressure  
Sea Level Pressure 30.48 in    
Wind  
Wind Speed 2 mph (NNW)    
Max Wind Speed 9 mph    
Max Gust Speed -    
Visibility 10 miles    
Events      
Averages and records for this station are not official NWS values.
T = Trace of Precipitation, MM = Missing Value Source: NWS Daily Summary

Daily Weather History Graph

Daily Weather History Graph

Search for Another Location

Airport:

Trip Planner

Search our weather history database for the weather conditions in past years. The results will help you decide how hot, cold, wet, or windy it might be!

Date:

Astronomy

Nov. 15, 2014 Rise Set
Actual Time 7:15 AM PST 4:30 PM PST
Civil Twilight 6:41 AM PST 5:04 PM PST
Nautical Twilight 6:03 AM PST 5:42 PM PST
Astronomical Twilight 5:27 AM PST 6:18 PM PST
Moon 12:01 AM PST (11/15) 1:24 PM PST (11/15)
Length of Visible Light 10h 22m
Length of Day
9h 14m
Last Quarter, 39% of the Moon is Illuminated
Nov 15
Last Quarter
Nov 22
New
Nov 29
First Quarter
Dec 6
Full
Dec 14
Last Quarter

Hourly Weather History & Observations

Time (PST) Temp. Windchill Dew Point Humidity Pressure Visibility Wind Dir Wind Speed Gust Speed Precip Events Conditions
12:15 AM 21.2 °F 16.4 °F 14.0 °F 74% 30.34 in 10.0 mi North 3.5 mph - N/A   Clear
12:35 AM 19.4 °F - 14.0 °F 80% 30.34 in 10.0 mi Calm Calm - N/A   Clear
12:55 AM 21.2 °F - 15.8 °F 80% 30.34 in 10.0 mi Calm Calm - N/A   Clear
1:15 AM 21.2 °F - 14.0 °F 74% 30.35 in 10.0 mi Calm Calm - N/A   Clear
1:35 AM 19.4 °F 14.3 °F 15.8 °F 86% 30.35 in 10.0 mi North 3.5 mph - N/A   Clear
1:55 AM 19.4 °F - 12.2 °F 74% 30.36 in 10.0 mi Calm Calm - N/A   Clear
2:15 AM 21.2 °F 13.6 °F 17.6 °F 86% 30.36 in 10.0 mi NNW 5.8 mph - N/A   Clear
2:35 AM 19.4 °F 14.3 °F 15.8 °F 86% 30.37 in 10.0 mi SSE 3.5 mph - N/A   Clear
2:55 AM 19.4 °F - 15.8 °F 86% 30.38 in 10.0 mi Calm Calm - N/A   Clear
3:15 AM 19.4 °F - 12.2 °F 74% 30.38 in 10.0 mi Calm Calm - N/A   Clear
3:35 AM 21.2 °F - 15.8 °F 80% 30.38 in 10.0 mi Calm Calm - N/A   Clear
3:55 AM 19.4 °F - 14.0 °F 80% 30.39 in 10.0 mi Calm Calm - N/A   Clear
4:15 AM 19.4 °F - 14.0 °F 80% 30.39 in 10.0 mi Calm Calm - N/A   Clear
4:35 AM 19.4 °F - 12.2 °F 74% 30.40 in 10.0 mi Calm Calm - N/A   Clear
4:55 AM 19.4 °F - 12.2 °F 74% 30.41 in 10.0 mi Calm Calm - N/A   Clear
5:15 AM 17.6 °F - 12.2 °F 79% 30.41 in 10.0 mi Calm Calm - N/A   Clear
5:35 AM 19.4 °F - 14.0 °F 80% 30.42 in 10.0 mi Calm Calm - N/A   Clear
5:55 AM 19.4 °F - 12.2 °F 74% 30.42 in 10.0 mi Calm Calm - N/A   Clear
6:15 AM 17.6 °F - 12.2 °F 79% 30.43 in 10.0 mi Calm Calm - N/A   Clear
6:35 AM 17.6 °F - 14.0 °F 86% 30.44 in 10.0 mi Calm Calm - N/A   Clear
6:55 AM 17.6 °F - 14.0 °F 86% 30.44 in 10.0 mi Calm Calm - N/A   Clear
7:15 AM 17.6 °F - 10.4 °F 73% 30.46 in 10.0 mi Calm Calm - N/A   Clear
7:35 AM 19.4 °F - 15.8 °F 86% 30.46 in 10.0 mi Calm Calm - N/A   Clear
7:55 AM 17.6 °F 12.3 °F 12.2 °F 79% 30.47 in 10.0 mi South 3.5 mph - N/A   Clear
8:15 AM 19.4 °F 14.3 °F 15.8 °F 86% 30.48 in 10.0 mi SSW 3.5 mph - N/A   Clear
8:35 AM 23.0 °F - 17.6 °F 80% 30.48 in 10.0 mi Calm Calm - N/A   Clear
8:55 AM 24.8 °F - 17.6 °F 74% 30.49 in 10.0 mi Calm Calm - N/A   Clear
9:15 AM 26.6 °F - 19.4 °F 74% 30.49 in 10.0 mi Calm Calm - N/A   Clear
9:35 AM 30.2 °F - 21.2 °F 69% 30.50 in 10.0 mi Calm Calm - N/A   Clear
9:55 AM 32.0 °F - 23.0 °F 69% 30.51 in 10.0 mi Calm Calm - N/A   Clear
10:15 AM 35.6 °F - 23.0 °F 60% 30.51 in 10.0 mi Calm Calm - N/A   Clear
10:35 AM 37.4 °F - 21.2 °F 52% 30.51 in 10.0 mi Calm Calm - N/A   Clear
10:55 AM 35.6 °F - 17.6 °F 48% 30.51 in 10.0 mi Calm Calm - N/A   Clear
11:15 AM 37.4 °F - 17.6 °F 45% 30.51 in 10.0 mi Calm Calm - N/A   Clear
11:35 AM 39.2 °F - 19.4 °F 45% 30.50 in 10.0 mi Calm Calm - N/A   Clear
11:55 AM 39.2 °F 37.0 °F 21.2 °F 49% 30.49 in 10.0 mi North 3.5 mph - N/A   Clear
12:15 PM 41.0 °F 39.0 °F 19.4 °F 42% 30.50 in 10.0 mi WNW 3.5 mph - N/A   Clear
12:35 PM 42.8 °F - 19.4 °F 39% 30.49 in 10.0 mi Calm Calm - N/A   Clear
12:55 PM 42.8 °F - 15.8 °F 34% 30.49 in 10.0 mi Calm Calm - N/A   Clear
1:15 PM 44.6 °F - 15.8 °F 31% 30.50 in 10.0 mi Calm Calm - N/A   Clear
1:35 PM 44.6 °F 40.7 °F 15.8 °F 31% 30.49 in 10.0 mi NNW 6.9 mph - N/A   Clear
1:55 PM 44.6 °F 40.2 °F 19.4 °F 37% 30.49 in 10.0 mi NW 8.1 mph - N/A   Clear
2:15 PM 44.6 °F 40.2 °F 19.4 °F 37% 30.49 in 10.0 mi WNW 8.1 mph - N/A   Clear
2:35 PM 44.6 °F 39.7 °F 17.6 °F 34% 30.49 in 10.0 mi NW 9.2 mph - N/A   Clear
2:55 PM 42.8 °F 38.0 °F 19.4 °F 39% 30.49 in 10.0 mi NW 8.1 mph - N/A   Clear
3:15 PM 42.8 °F 39.3 °F 19.4 °F 39% 30.49 in 10.0 mi NW 5.8 mph - N/A   Clear
3:35 PM 42.8 °F 39.3 °F 19.4 °F 39% 30.49 in 10.0 mi WNW 5.8 mph - N/A   Clear
3:55 PM 39.2 °F 35.0 °F 17.6 °F 42% 30.49 in 10.0 mi NW 5.8 mph - N/A   Clear
4:15 PM 37.4 °F 32.1 °F 17.6 °F 45% 30.49 in 10.0 mi NNW 6.9 mph - N/A   Clear
4:35 PM 35.6 °F - 15.8 °F 44% 30.49 in 10.0 mi Calm Calm - N/A   Clear
4:55 PM 35.6 °F - 17.6 °F 48% 30.49 in 10.0 mi Calm Calm - N/A   Clear
5:15 PM 32.0 °F 28.7 °F 15.8 °F 51% 30.50 in 10.0 mi South 3.5 mph - N/A   Clear
5:35 PM 32.0 °F - 17.6 °F 55% 30.51 in 10.0 mi Calm Calm - N/A   Clear
5:55 PM 30.2 °F 26.7 °F 17.6 °F 60% 30.51 in 10.0 mi East 3.5 mph - N/A   Clear
6:15 PM 28.4 °F - 15.8 °F 59% 30.52 in 10.0 mi Calm Calm - N/A   Clear
6:35 PM 28.4 °F - 17.6 °F 64% 30.52 in 10.0 mi Calm Calm - N/A   Clear
6:55 PM 26.6 °F - 17.6 °F 69% 30.53 in 10.0 mi Calm Calm - N/A   Clear
7:15 PM 26.6 °F - 15.8 °F 64% 30.54 in 10.0 mi Calm Calm - N/A   Clear
7:35 PM 24.8 °F - 15.8 °F 69% 30.55 in 10.0 mi Calm Calm - N/A   Clear
7:55 PM 26.6 °F 21.2 °F 17.6 °F 69% 30.55 in 10.0 mi North 4.6 mph - N/A   Clear
8:15 PM 26.6 °F - 17.6 °F 69% 30.56 in 10.0 mi Calm Calm - N/A   Clear
8:35 PM 26.6 °F - 17.6 °F 69% 30.56 in 10.0 mi Calm Calm - N/A   Clear
8:55 PM 24.8 °F - 15.8 °F 69% 30.57 in 10.0 mi Calm Calm - N/A   Clear
9:15 PM 24.8 °F - 15.8 °F 69% 30.57 in 10.0 mi Calm Calm - N/A   Clear
9:35 PM 24.8 °F - 17.6 °F 74% 30.57 in 10.0 mi Calm Calm - N/A   Clear
9:55 PM 21.2 °F - 14.0 °F 74% 30.58 in 10.0 mi Calm Calm - N/A   Clear
10:15 PM 23.0 °F 18.4 °F 15.8 °F 74% 30.57 in 10.0 mi North 3.5 mph - N/A   Clear
10:35 PM 23.0 °F - 15.8 °F 74% 30.58 in 10.0 mi Calm Calm - N/A   Clear
10:55 PM 23.0 °F - 17.6 °F 80% 30.57 in 10.0 mi Calm Calm - N/A   Clear
11:15 PM 24.8 °F - 15.8 °F 69% 30.56 in 10.0 mi Calm Calm - N/A   Clear
11:35 PM 21.2 °F 13.6 °F 15.8 °F 80% 30.56 in 10.0 mi North 5.8 mph - N/A   Clear
11:55 PM 24.8 °F 17.9 °F 17.6 °F 74% 30.56 in 10.0 mi North 5.8 mph - N/A   Clear